"Pseudo-MPEC" for ZTF10DJ

Created 2026 Apr 13 14:35:06 UT using Find_Orb

Click here for an explanation of pseudo-MPECs

 
 Astrometry: 
     ZTF10DJ*0C2026 04 08.48363616 26 49.666+14 08 02.72   ~48EZ 19.39iUNEOCPI41
     ZTF10DJ 0C2026 04 08.48398316 26 50.422+14 08 08.96   ~48EZ 19.39iUNEOCPI41

Station data:
(I41) Palomar Mountain--ZTF  (N33.357336 W116.859780)  US/California.
   Observers B. T. Bolin, Z. T. F. Collaboration. Measurers B. T. Bolin,
   Z.-Y. Lin, F. J. Masci. 1.2-m f/2.4 Schmidt.

Orbital elements:  ZTF10DJ
   Perihelion 2026 Apr 13.766188 +/- 27.7 TT = 18:23:18.6 (JD 2461144.266188)
Epoch 2026 Apr  8.0 TT = JDT 2461138.5   Earth MOID: 0.0217   Ju: 0.1698
M 358.980030385 +/- 37              (J2000 ecliptic)             AutoNEOCP
n   0.176888025 +/- 0.316           Peri.   10.514337 +/- 70
a   3.142947259 +/- 3.75            Node   195.403903 +/- 70
e   0.67658353 +/- 0.231            Incl.   14.301939 +/- 22
P   5.57193                H 25.36  G  0.15   U 12.0  SR
q 1.016480879 +/- 0.266    Q 5.269413640 +/- 23.5
From 2 observations 2026 Apr. 8 (30.0 sec); mean residual 0".01
Residuals in arcseconds: 
260408 I41  .01+  .00     260408 I41  .01+  .00     

Ephemerides (geocentric):
Date (UTC) HH   RA             Dec           delta  r     elong  mag " sig PA
---- --------  ------------   ------------  ------ ------ -----  --- --------
2026 04 13 15  18 15 37.229   +25 40 10.03  .05963 1.0165 101.7 21.9  52d  73
2026 04 13 16  18 16 04.268   +25 42 17.01  .05990 1.0165 101.6 21.9  52d  73
2026 04 13 17  18 16 31.078   +25 44 22.53  .06017 1.0165 101.5 21.9  52d  73
2026 04 13 18  18 16 57.659   +25 46 26.63  .06044 1.0165 101.4 21.9  52d  73
2026 04 13 19  18 17 24.015   +25 48 29.31  .06071 1.0165 101.3 21.9  52d  73
2026 04 13 20  18 17 50.149   +25 50 30.60  .06097 1.0165 101.3 22.0  52d  73
2026 04 13 21  18 18 16.062   +25 52 30.53  .06124 1.0165 101.2 22.0  52d  73
2026 04 13 22  18 18 41.758   +25 54 29.10  .06151 1.0165 101.1 22.0  52d  73
2026 04 13 23  18 19 07.238   +25 56 26.35  .06178 1.0165 101.0 22.0  52d  73
2026 04 14 00  18 19 32.507   +25 58 22.29  .06205 1.0165 101.0 22.0  52d  73
2026 04 14 01  18 19 57.565   +26 00 16.95  .06232 1.0165 100.9 22.0  52d  73
2026 04 14 02  18 20 22.415   +26 02 10.33  .06259 1.0165 100.8 22.0  52d  73
2026 04 14 03  18 20 47.060   +26 04 02.47  .06286 1.0165 100.7 22.0  52d  73
2026 04 14 04  18 21 11.502   +26 05 53.37  .06313 1.0165 100.7 22.0  51d  73
2026 04 14 05  18 21 35.743   +26 07 43.06  .06340 1.0165 100.6 22.1  51d  73
2026 04 14 06  18 21 59.785   +26 09 31.55  .06367 1.0165 100.5 22.1  51d  73
2026 04 14 07  18 22 23.632   +26 11 18.87  .06394 1.0165 100.5 22.1  51d  73
2026 04 14 08  18 22 47.284   +26 13 05.02  .06421 1.0165 100.4 22.1  51d  73
2026 04 14 09  18 23 10.745   +26 14 50.03  .06448 1.0165 100.3 22.1  51d  73
2026 04 14 10  18 23 34.016   +26 16 33.91  .06475 1.0165 100.3 22.1  51d  73
2026 04 14 11  18 23 57.099   +26 18 16.68  .06502 1.0165 100.2 22.1  51d  73
2026 04 14 12  18 24 19.996   +26 19 58.35  .06529 1.0165 100.1 22.1  51d  73
2026 04 14 13  18 24 42.711   +26 21 38.95  .06556 1.0165 100.1 22.1  51d  73
2026 04 14 14  18 25 05.243   +26 23 18.48  .06584 1.0165 100.0 22.2  51d  73
2026 04 14 15  18 25 27.597   +26 24 56.95  .06611 1.0165 100.0 22.2  51d  73
2026 04 14 16  18 25 49.773   +26 26 34.40  .06638 1.0166  99.9 22.2  51d  73
2026 04 14 17  18 26 11.773   +26 28 10.82  .06665 1.0166  99.8 22.2  51d  73
2026 04 14 18  18 26 33.600   +26 29 46.24  .06692 1.0166  99.8 22.2  50d  73
2026 04 14 19  18 26 55.255   +26 31 20.66  .06719 1.0166  99.7 22.2  50d  73
2026 04 14 20  18 27 16.741   +26 32 54.11  .06747 1.0166  99.7 22.2  50d  73
2026 04 14 21  18 27 38.058   +26 34 26.59  .06774 1.0166  99.6 22.2  50d  73
2026 04 14 22  18 27 59.209   +26 35 58.13  .06801 1.0166  99.5 22.2  50d  73
2026 04 14 23  18 28 20.196   +26 37 28.72  .06828 1.0166  99.5 22.2  50d  73
2026 04 15 00  18 28 41.020   +26 38 58.39  .06856 1.0166  99.4 22.3  50d  73
2026 04 15 01  18 29 01.684   +26 40 27.15  .06883 1.0166  99.4 22.3  50d  73
2026 04 15 02  18 29 22.188   +26 41 55.00  .06910 1.0166  99.3 22.3  50d  73
2026 04 15 03  18 29 42.535   +26 43 21.97  .06937 1.0167  99.3 22.3  50d  73
2026 04 15 04  18 30 02.726   +26 44 48.07  .06965 1.0167  99.2 22.3  50d  73
2026 04 15 05  18 30 22.763   +26 46 13.30  .06992 1.0167  99.2 22.3  50d  73
2026 04 15 06  18 30 42.648   +26 47 37.68  .07019 1.0167  99.1 22.3  50d  73
2026 04 15 07  18 31 02.382   +26 49 01.22  .07047 1.0167  99.1 22.3  50d  73
2026 04 15 08  18 31 21.966   +26 50 23.93  .07074 1.0167  99.0 22.3  50d  73
2026 04 15 09  18 31 41.403   +26 51 45.82  .07101 1.0167  99.0 22.3  50d  73
2026 04 15 10  18 32 00.693   +26 53 06.91  .07129 1.0167  98.9 22.4  50d  73
2026 04 15 11  18 32 19.839   +26 54 27.19  .07156 1.0167  98.9 22.4  49d  73
2026 04 15 12  18 32 38.842   +26 55 46.70  .07183 1.0168  98.8 22.4  49d  73
2026 04 15 13  18 32 57.704   +26 57 05.42  .07211 1.0168  98.8 22.4  49d  73
2026 04 15 14  18 33 16.425   +26 58 23.38  .07238 1.0168  98.7 22.4  49d  73